Regional Weather Roundup
Issued by NWS

Home | Current Version | Previous Version | Graphics & Text | Print | Product List | Glossary On
Versions: 1 2 3 4 5 6 7 8 9 10 11 12 13 14 15 16 17 18 19 20 21 22 23 24 25 26 27 28 29 30 31 32 33 34 35 36 37 38 39 40 41 42 43 44 45 46 47 48 49 50
000
ASUS43 KDMX 292107
RWRIA

WEATHER ROUNDUP FOR IOWA
NATIONAL WEATHER SERVICE DES MOINES IA
400 PM CDT FRI AUG 29 2014

NOTE: "FAIR" INDICATES FEW OR NO CLOUDS BELOW 12,000 FEET WITH NO
SIGNIFICANT WEATHER AND/OR OBSTRUCTIONS TO VISIBILITY.

* - THESE STATIONS ARE NOT NWS STATIONS...THUS NOT UNDER NWS
QUALITY CONTROL.  THEY ALSO DO NOT REPORT WEATHER SUCH
AS PRECIPITATION OR FOG.

IAZ001>003-012>014-020>022-031>034-043>046-292200-
   NORTHWEST IOWA

CITY           SKY/WX    TMP DP  RH WIND       PRES   REMARKS
CARROLL *      PTSUNNY   73  70  88 SW5       29.79S
CHEROKEE *     CLOUDY    72  68  88 CALM      29.77F
DENISON *      PTSUNNY   75  72  88 S3        29.75F
LE MARS *      PTSUNNY   72  68  88 SW5       29.78S
ORANGE CITY *  SUNNY     73  66  78 CALM      29.78S
SHELDON *      DRIZZLE   68  68 100 CALM      29.77F
SIOUX CITY     CLOUDY    75  67  76 W6        29.77F
SPENCER        CLOUDY    70  66  87 NW7       29.77F
STORM LAKE *   SUNNY     72  72 100 N6        29.78F
$$

IAZ055>058-069>071-079>083-090>094-292200-
   SOUTHWEST IOWA

CITY           SKY/WX    TMP DP  RH WIND       PRES   REMARKS
ATLANTIC *     PTSUNNY   73  68  83 S8        29.78F
AUDUBON *      MOSUNNY   77  72  83 S5        29.80F
CLARINDA *     PTSUNNY   77  70  78 SW9       29.81S
COUNCIL BLFS * PTSUNNY   73  72  94 S8        29.77S FOG
CRESTON *      CLOUDY    73  70  88 SW8       29.81F
HARLAN  *      CLOUDY    73  70  88 S8        29.81F
RED OAK *      CLOUDY    75  70  83 S8G15     29.79S
SHENANDOAH *   PTSUNNY   77  70  78 S9G15     29.79S
$$

IAZ047>049-059>061-072>074-084-292200-
   CENTRAL IOWA

CITY           SKY/WX    TMP DP  RH WIND       PRES   REMARKS
AMES           CLOUDY    79  71  76 W7        29.77F HX  82
ANKENY *       LGT RAIN  79  72  78 S8        29.78R HX  82
CHARITON *     LGT RAIN  70  68  94 SE9       29.83S
DES MOINES     TSTM      77  71  82 S8        29.79R
GRINNELL*      MOSUNNY   77  64  65 SW9G20    29.83R
KNOXVILLE *    CLOUDY    72  66  83 S20G26    29.82R HAZE
MARSHALLTOWN   TSTM      77  70  79 SW20      29.78S
PELLA *        RAIN      72  66  83 W7G16     29.83R
PERRY *          N/A     77  68  73 SW5       29.79S
$$

IAZ004>006-015-016-023>025-035-036-292200-
   NORTH CENTRAL IOWA

CITY           SKY/WX    TMP DP  RH WIND       PRES   REMARKS
ALGONA *       MOSUNNY   77  70  78 SW12      29.78F
CLARION *      MOSUNNY   79  70  73 SW9       29.78F HX  81
ESTHERVILLE    CLOUDY    72  69  90 W8        29.78F
FORT DODGE *   CLOUDY    77  66  69 SW7       29.79S
MASON CITY     CLOUDY    82  70  66 SW14      29.78F HX  86
FOREST CITY *  CLOUDY    79  70  73 S9        29.77F HX  81
IOWA FALLS *     N/A     81  70  69 W9        29.79S HX  84
$$

IAZ007>011-017>019-026>030-037>042-050>054-066-292200-
   NORTHEAST IOWA

CITY           SKY/WX    TMP DP  RH WIND       PRES   REMARKS
CEDAR RAPIDS   MOSUNNY   85  72  65 S14       29.79F HX  91
CHARLES CITY * MOSUNNY   82  72  69 SW9G18    29.77S HX  87
CLINTON *      SUNNY     86  73  66 S13       29.85F HX  93
DECORAH *      SUNNY     84  70  61 S8G16     29.76F HX  88
DUBUQUE        SUNNY     84  70  62 S14G20    29.82F HX  88
MONTICELLO *   SUNNY     86  72  62 S12G18    29.80F HX  92
OELWEIN *      MOSUNNY   84  70  61 S12G22    29.79F HX  88
WATERLOO       MOSUNNY   85  68  56 S18       29.75F HX  88
$$

IAZ064-065-067-068-078-292200-
   EAST CENTRAL IOWA

CITY           SKY/WX    TMP DP  RH WIND       PRES   REMARKS
DAVENPORT      MOSUNNY   86  72  62 S10       29.83F HX  92
IOWA CITY      MOSUNNY   85  71  63 S13       29.81F HX  90
MT. PLEASANT * MOSUNNY   86  68  54 S5        29.81F HX  89
MUSCATINE *    MOSUNNY   88  70  55 S15       29.81F HX  92
QUAD CITIES    SUNNY     86  72  62 SE12      29.82F HX  92
$$

IAZ062-063-075>077-085>089-095>099-292200-
   SOUTHEAST IOWA

CITY           SKY/WX    TMP DP  RH WIND       PRES   REMARKS
BURLINGTON     MOSUNNY   86  69  56 S9        29.82F HX  90
FAIRFIELD *    MOSUNNY   82  70  65 S8        29.81S HX  86
FORT MADISON *   N/A     88  66  48 S8        29.83F HX  90
KEOKUK *       SUNNY     84  64  51 S8G17     29.81F HX  86
OSKALOOSA *    PTSUNNY   77  72  83 SW6       29.81R
CENTERVILLE *  HVY RAIN  68  68 100 W5        29.85F
OTTUMWA        PTSUNNY   79  71  76 S6        29.79F HX  82
WASHINGTON *   MOSUNNY   82  72  69 S12       29.81S HX  87
$$

ABBREVIATIONS USED IN REMARKS
   TC - TEMPERATURES IN CELSIUS
  WCI - WIND CHILL INDEX
   HX - HEAT INDEX
  VSB - VISIBILITY
$$




USA.gov is the U.S. government's official web portal to all federal, state and local government web resources and services.